QPF
0.02 0.02 0.04 0.06 0.05 0.06 0.03 0.02 0.03 0.02 0.02 0.01 0.02 0.04 0.03 0.03 0.05 0.05 0.04 0.06 0.05 0.04 0.05 0.07 0.09 0.11 0.16 0.19 0.17 0.15 0.12 0.07 0.06 0.05 0.06 0.07 0.09 0.08 0.07 0.06 0.05 0.05 0.04
0.02 0.04 0.06 0.08 0.09 0.09 0.05 0.03 0.02 0.01 0.01 0.02 0.04 0.04 0.04 0.04 0.04 0.04 0.04 0.05 0.06 0.05 0.05 0.05 0.06 0.08 0.11 0.17 0.21 0.15 0.13 0.10 0.09 0.07 0.06 0.06 0.07 0.09 0.09 0.07 0.05 0.05 0.04
0.01 0.02 0.04 0.09 0.11 0.09 0.07 0.05 0.03 0.02 0.02 0.03 0.03 0.03 0.03 0.03 0.03 0.03 0.03 0.04 0.04 0.05 0.04 0.03 0.04 0.05 0.06 0.09 0.18 0.22 0.17 0.12 0.08 0.06 0.06 0.06 0.06 0.07 0.08 0.07 0.05 0.05 0.05
0.02 0.02 0.03 0.06 0.08 0.08 0.07 0.05 0.04 0.03 0.02 0.02 0.03 0.03 0.02 0.02 0.02 0.02 0.03 0.03 0.03 0.03 0.03 0.03 0.03 0.03 0.04 0.04 0.07 0.15 0.21 0.19 0.13 0.09 0.07 0.06 0.06 0.05 0.05 0.05 0.05 0.04 0.04
0.02 0.02 0.02 0.03 0.05 0.07 0.08 0.05 0.04 0.04 0.03 0.03 0.03 0.03 0.03 0.04 0.02 0.02 0.03 0.03 0.02 0.02 0.02 0.03 0.03 0.03 0.03 0.03 0.04 0.06 0.12 0.18 0.20 0.15 0.13 0.10 0.08 0.06 0.05 0.04 0.05 0.06 0.05
0.03 0.03 0.02 0.02 0.03 0.07 0.09 0.08 0.06 0.05 0.04 0.04 0.05 0.06 0.07 0.06 0.04 0.03 0.03 0.03 0.02 0.02 0.02 0.04 0.05 0.06 0.05 0.05 0.06 0.06 0.07 0.12 0.17 0.13 0.09 0.10 0.10 0.08 0.07 0.05 0.05 0.05 0.07
0.04 0.03 0.02 0.04 0.04 0.05 0.06 0.07 0.09 0.07 0.06 0.05 0.05 0.08 0.11 0.11 0.08 0.06 0.03 0.03 0.02 0.02 0.03 0.05 0.07 0.07 0.06 0.06 0.06 0.06 0.06 0.07 0.11 0.12 0.07 0.05 0.04 0.05 0.06 0.06 0.06 0.06 0.07
0.06 0.06 0.06 0.05 0.05 0.03 0.03 0.04 0.06 0.06 0.07 0.07 0.07 0.08 0.09 0.10 0.09 0.08 0.06 0.05 0.05 0.05 0.05 0.07 0.08 0.08 0.06 0.04 0.05 0.05 0.04 0.05 0.06 0.08 0.07 0.05 0.04 0.04 0.03 0.03 0.04 0.04 0.05
0.06 0.06 0.06 0.06 0.04 0.03 0.03 0.03 0.04 0.04 0.06 0.06 0.07 0.09 0.08 0.05 0.04 0.04 0.03 0.04 0.04 0.05 0.05 0.07 0.08 0.06 0.06 0.05 0.04 0.05 0.04 0.04 0.05 0.07 0.07 0.06 0.05 0.05 0.05 0.03 0.03 0.02 0.03
0.07 0.07 0.07 0.07 0.07 0.06 0.04 0.04 0.04 0.05 0.05 0.05 0.06 0.07 0.06 0.04 0.03 0.02 0.02 0.02 0.02 0.03 0.04 0.04 0.06 0.07 0.08 0.08 0.06 0.05 0.05 0.06 0.06 0.08 0.09 0.07 0.06 0.06 0.08 0.07 0.05 0.03 0.04
0.09 0.07 0.04 0.04 0.05 0.07 0.07 0.07 0.06 0.06 0.05 0.04 0.05 0.07 0.07 0.04 0.02 0.01 0.01 0.02 0.02 0.02 0.03 0.03 0.04 0.06 0.08 0.08 0.08 0.06 0.05 0.05 0.05 0.07 0.12 0.10 0.10 0.06 0.06 0.07 0.08 0.08 0.07
0.05 0.03 0.03 0.03 0.04 0.06 0.07 0.08 0.08 0.08 0.07 0.06 0.06 0.07 0.07 0.05 0.02 0.01 0.01 0.01 0.02 0.02 0.02 0.02 0.03 0.04 0.05 0.05 0.05 0.05 0.05 0.06 0.05 0.06 0.09 0.08 0.12 0.07 0.06 0.05 0.05 0.06 0.09
0.04 0.03 0.03 0.03 0.03 0.05 0.07 0.08 0.08 0.09 0.10 0.08 0.07 0.07 0.06 0.05 0.03 0.01 0.02 0.02 0.03 0.02 0.01 0.01 0.02 0.03 0.03 0.03 0.03 0.03 0.03 0.03 0.03 0.03 0.04 0.05 0.08 0.06 0.05 0.04 0.05 0.05 0.06
0.03 0.04 0.05 0.05 0.05 0.06 0.08 0.10 0.10 0.09 0.09 0.07 0.06 0.05 0.06 0.06 0.04 0.03 0.03 0.03 0.03 0.02 0.02 0.02 0.02 0.02 0.02 0.02 0.02 0.01 0.01 0.02 0.03 0.02 0.02 0.03 0.05 0.06 0.05 0.04 0.04 0.05 0.05
0.06 0.05 0.05 0.05 0.06 0.07 0.07 0.07 0.06 0.06 0.06 0.06 0.05 0.05 0.05 0.07 0.07 0.05 0.04 0.04 0.05 0.03 0.03 0.02 0.02 0.02 0.02 0.01 0.01 0.01 0.01 0.02 0.03 0.04 0.03 0.03 0.03 0.04 0.05 0.04 0.03 0.03 0.04
0.04 0.05 0.04 0.06 0.06 0.07 0.07 0.06 0.05 0.05 0.05 0.06 0.05 0.05 0.05 0.06 0.08 0.07 0.06 0.06 0.05 0.04 0.03 0.03 0.02 0.04 0.02 0.01 0.01 0.01 0.01 0.01 0.02 0.04 0.04 0.03 0.03 0.04 0.04 0.06 0.05 0.03 0.04
0.04 0.04 0.05 0.06 0.06 0.06 0.06 0.05 0.04 0.04 0.05 0.06 0.07 0.06 0.05 0.05 0.07 0.06 0.06 0.06 0.05 0.04 0.04 0.04 0.04 0.03 0.02 0.02 0.01 0.01 0.01 0.01 0.01 0.03 0.05 0.05 0.05 0.04 0.05 0.05 0.07 0.06 0.04
0.04 0.04 0.04 0.05 0.05 0.05 0.05 0.04 0.03 0.03 0.04 0.05 0.07 0.07 0.06 0.06 0.05 0.06 0.05 0.04 0.05 0.06 0.05 0.05 0.04 0.02 0.02 0.02 0.02 0.02 0.01 0.01 0.02 0.02 0.03 0.04 0.05 0.06 0.06 0.06 0.07 0.08 0.07
0.04 0.04 0.04 0.04 0.04 0.04 0.03 0.02 0.02 0.03 0.03 0.04 0.05 0.04 0.04 0.06 0.06 0.05 0.04 0.04 0.05 0.06 0.06 0.07 0.05 0.02 0.02 0.02 0.02 0.02 0.01 0.01 0.02 0.02 0.03 0.03 0.04 0.05 0.06 0.07 0.06 0.06 0.08
0.05 0.05 0.05 0.04 0.03 0.03 0.02 0.01 0.01 0.02 0.03 0.02 0.02 0.02 0.02 0.03 0.05 0.04 0.03 0.04 0.04 0.04 0.04 0.04 0.06 0.04 0.02 0.02 0.02 0.01 0.01 0.01 0.02 0.02 0.03 0.03 0.04 0.04 0.04 0.04 0.05 0.05 0.05
0.05 0.04 0.04 0.03 0.03 0.02 0.01 0.01 0.01 0.02 0.02 0.02 0.02 0.02 0.02 0.03 0.04 0.04 0.03 0.02 0.03 0.03 0.03 0.02 0.04 0.04 0.03 0.03 0.03 0.02 0.01 0.01 0.02 0.02 0.03 0.03 0.03 0.03 0.03 0.04 0.03 0.03 0.03
0.06 0.05 0.04 0.02 0.01 0.01 0.01 0.01 0.02 0.03 0.02 0.02 0.02 0.02 0.02 0.03 0.03 0.04 0.04 0.03 0.03 0.03 0.02 0.02 0.02 0.02 0.02 0.02 0.03 0.03 0.02 0.02 0.02 0.02 0.02 0.03 0.02 0.02 0.02 0.02 0.03 0.02 0.02
0.04 0.04 0.02 0.02 0.01 0.01 0.02 0.02 0.02 0.02 0.02 0.01 0.02 0.02 0.02 0.03 0.04 0.04 0.04 0.04 0.04 0.04 0.03 0.02 0.02 0.02 0.02 0.02 0.02 0.03 0.04 0.02 0.02 0.02 0.02 0.02 0.02 0.02 0.02 0.02 0.03 0.03 0.03
0.03 0.04 0.03 0.03 0.02 0.02 0.03 0.03 0.02 0.01 0.01 0.02 0.03 0.03 0.04 0.04 0.04 0.03 0.03 0.03 0.03 0.03 0.03 0.04 0.02 0.02 0.02 0.02 0.02 0.03 0.03 0.02 0.02 0.02 0.02 0.01 0.01 0.01 0.01 0.02 0.02 0.02 0.03
0.02 0.03 0.03 0.04 0.03 0.02 0.03 0.02 0.02 0.01 0.01 0.02 0.03 0.04 0.04 0.03 0.04 0.03 0.03 0.02 0.02 0.02 0.02 0.03 0.03 0.02 0.02 0.02 0.02 0.02 0.03 0.03 0.02 0.02 0.01 0.01 0.00 0.01 0.01 0.01 0.01 0.02 0.02
0.03 0.03 0.04 0.04 0.03 0.03 0.03 0.03 0.03 0.02 0.01 0.02 0.02 0.03 0.03 0.03 0.03 0.03 0.02 0.02 0.02 0.02 0.03 0.03 0.03 0.02 0.02 0.02 0.02 0.02 0.02 0.02 0.02 0.01 0.01 0.00 0.00 0.00 0.01 0.00 0.00 0.00 0.01
MSLP
1015.47 1015.58 1015.63 1015.64 1015.66 1015.71 1015.81 1015.98 1016.19 1016.42 1016.65 1016.84 1016.97 1017.04 1017.04 1017.00 1016.93 1016.85 1016.78 1016.73 1016.69 1016.67 1016.65 1016.61 1016.54 1016.45 1016.34 1016.22 1016.11 1016.04 1016.03 1016.10 1016.27 1016.52 1016.85 1017.23 1017.64 1018.06 1018.47 1018.86 1019.21 1019.56 1019.90
1015.68 1015.79 1015.86 1015.90 1015.96 1016.06 1016.21 1016.42 1016.66 1016.92 1017.16 1017.36 1017.48 1017.52 1017.50 1017.42 1017.31 1017.19 1017.10 1017.04 1017.00 1016.99 1016.98 1016.94 1016.86 1016.73 1016.54 1016.31 1016.07 1015.86 1015.71 1015.66 1015.75 1015.96 1016.30 1016.73 1017.23 1017.75 1018.25 1018.72 1019.14 1019.53 1019.90
1015.82 1015.94 1016.03 1016.12 1016.23 1016.38 1016.58 1016.83 1017.10 1017.38 1017.62 1017.81 1017.92 1017.95 1017.90 1017.79 1017.65 1017.51 1017.40 1017.32 1017.29 1017.28 1017.27 1017.22 1017.12 1016.93 1016.66 1016.32 1015.94 1015.58 1015.29 1015.12 1015.12 1015.29 1015.64 1016.13 1016.71 1017.34 1017.96 1018.54 1019.04 1019.49 1019.89
1015.89 1016.04 1016.17 1016.31 1016.48 1016.68 1016.92 1017.20 1017.48 1017.76 1018.00 1018.18 1018.28 1018.29 1018.23 1018.10 1017.94 1017.79 1017.66 1017.57 1017.53 1017.51 1017.49 1017.43 1017.29 1017.05 1016.70 1016.25 1015.75 1015.25 1014.83 1014.54 1014.46 1014.59 1014.94 1015.48 1016.14 1016.88 1017.61 1018.30 1018.90 1019.42 1019.87
1015.95 1016.12 1016.30 1016.49 1016.71 1016.95 1017.22 1017.51 1017.80 1018.06 1018.29 1018.46 1018.54 1018.55 1018.48 1018.35 1018.19 1018.02 1017.88 1017.77 1017.71 1017.68 1017.64 1017.55 1017.38 1017.10 1016.68 1016.15 1015.55 1014.95 1014.41 1014.02 1013.86 1013.94 1014.28 1014.84 1015.58 1016.40 1017.24 1018.03 1018.73 1019.32 1019.82
1016.00 1016.20 1016.42 1016.66 1016.92 1017.19 1017.47 1017.76 1018.03 1018.28 1018.48 1018.64 1018.72 1018.73 1018.67 1018.56 1018.40 1018.23 1018.08 1017.95 1017.87 1017.80 1017.73 1017.62 1017.42 1017.10 1016.65 1016.07 1015.41 1014.73 1014.11 1013.64 1013.41 1013.44 1013.75 1014.31 1015.07 1015.95 1016.87 1017.74 1018.52 1019.19 1019.74
1016.07 1016.29 1016.55 1016.83 1017.11 1017.40 1017.67 1017.94 1018.18 1018.40 1018.59 1018.74 1018.83 1018.87 1018.84 1018.74 1018.61 1018.44 1018.28 1018.13 1018.01 1017.91 1017.81 1017.67 1017.45 1017.12 1016.66 1016.07 1015.38 1014.67 1014.00 1013.47 1013.17 1013.14 1013.40 1013.93 1014.68 1015.58 1016.53 1017.46 1018.30 1019.02 1019.62
1016.12 1016.37 1016.66 1016.96 1017.26 1017.54 1017.80 1018.04 1018.25 1018.45 1018.62 1018.77 1018.89 1018.96 1018.97 1018.93 1018.82 1018.67 1018.50 1018.33 1018.17 1018.03 1017.89 1017.73 1017.51 1017.19 1016.74 1016.17 1015.50 1014.79 1014.10 1013.54 1013.17 1013.07 1013.26 1013.73 1014.43 1015.30 1016.25 1017.19 1018.07 1018.83 1019.48
1016.11 1016.39 1016.70 1017.02 1017.32 1017.59 1017.83 1018.03 1018.22 1018.39 1018.57 1018.73 1018.89 1019.01 1019.08 1019.09 1019.03 1018.90 1018.73 1018.54 1018.35 1018.18 1018.01 1017.83 1017.61 1017.32 1016.91 1016.39 1015.77 1015.08 1014.40 1013.81 1013.40 1013.22 1013.32 1013.70 1014.32 1015.12 1016.02 1016.95 1017.84 1018.63 1019.32
1015.99 1016.29 1016.62 1016.95 1017.25 1017.51 1017.72 1017.90 1018.06 1018.23 1018.41 1018.60 1018.81 1018.99 1019.13 1019.20 1019.19 1019.10 1018.94 1018.74 1018.53 1018.33 1018.14 1017.96 1017.76 1017.50 1017.15 1016.70 1016.14 1015.50 1014.85 1014.25 1013.80 1013.55 1013.55 1013.82 1014.33 1015.03 1015.87 1016.76 1017.63 1018.43 1019.15
1015.70 1016.03 1016.38 1016.72 1017.02 1017.27 1017.46 1017.63 1017.77 1017.94 1018.13 1018.36 1018.61 1018.86 1019.07 1019.21 1019.26 1019.21 1019.08 1018.88 1018.67 1018.46 1018.27 1018.10 1017.92 1017.72 1017.44 1017.06 1016.57 1016.00 1015.38 1014.79 1014.30 1013.98 1013.89 1014.05 1014.45 1015.05 1015.80 1016.63 1017.46 1018.26 1018.99
1015.22 1015.58 1015.95 1016.31 1016.61 1016.86 1017.06 1017.21 1017.36 1017.52 1017.73 1017.99 1018.29 1018.60 1018.87 1019.07 1019.18 1019.18 1019.08 1018.92 1018.72 1018.52 1018.35 1018.21 1018.08 1017.93 1017.72 1017.42 1017.01 1016.51 1015.94 1015.36 1014.86 1014.49 1014.32 1014.38 1014.68 1015.18 1015.83 1016.59 1017.38 1018.15 1018.87
1014.56 1014.95 1015.35 1015.73 1016.06 1016.32 1016.52 1016.68 1016.83 1017.00 1017.23 1017.51 1017.84 1018.18 1018.50 1018.76 1018.93 1018.98 1018.93 1018.81 1018.66 1018.50 1018.37 1018.28 1018.20 1018.12 1017.98 1017.76 1017.43 1017.00 1016.48 1015.94 1015.44 1015.05 1014.83 1014.82 1015.02 1015.43 1016.00 1016.68 1017.41 1018.14 1018.83
1013.76 1014.18 1014.62 1015.03 1015.39 1015.68 1015.90 1016.07 1016.23 1016.41 1016.64 1016.93 1017.28 1017.64 1017.99 1018.29 1018.50 1018.61 1018.62 1018.57 1018.48 1018.38 1018.32 1018.29 1018.28 1018.27 1018.21 1018.07 1017.82 1017.46 1017.01 1016.52 1016.04 1015.66 1015.41 1015.36 1015.50 1015.84 1016.33 1016.93 1017.59 1018.25 1018.89
1012.85 1013.31 1013.79 1014.24 1014.64 1014.97 1015.23 1015.43 1015.61 1015.80 1016.03 1016.31 1016.65 1017.01 1017.37 1017.69 1017.94 1018.10 1018.18 1018.20 1018.18 1018.17 1018.19 1018.24 1018.31 1018.37 1018.39 1018.33 1018.17 1017.89 1017.52 1017.09 1016.67 1016.32 1016.08 1016.01 1016.11 1016.39 1016.81 1017.34 1017.91 1018.50 1019.06
1011.91 1012.39 1012.90 1013.39 1013.84 1014.22 1014.52 1014.76 1014.96 1015.17 1015.40 1015.68 1016.00 1016.35 1016.70 1017.03 1017.30 1017.50 1017.65 1017.74 1017.81 1017.89 1018.00 1018.13 1018.28 1018.42 1018.52 1018.54 1018.46 1018.28 1018.00 1017.66 1017.31 1017.01 1016.81 1016.74 1016.83 1017.07 1017.43 1017.88 1018.37 1018.87 1019.35
1010.94 1011.43 1011.95 1012.48 1012.97 1013.40 1013.75 1014.04 1014.29 1014.52 1014.76 1015.04 1015.34 1015.67 1016.01 1016.34 1016.63 1016.87 1017.07 1017.24 1017.39 1017.56 1017.75 1017.96 1018.19 1018.41 1018.58 1018.68 1018.69 1018.60 1018.42 1018.18 1017.92 1017.70 1017.55 1017.51 1017.60 1017.80 1018.10 1018.48 1018.88 1019.29 1019.68
1009.96 1010.41 1010.93 1011.47 1011.99 1012.46 1012.88 1013.23 1013.53 1013.81 1014.08 1014.36 1014.66 1014.99 1015.32 1015.64 1015.95 1016.22 1016.47 1016.70 1016.93 1017.17 1017.43 1017.71 1018.00 1018.29 1018.53 1018.71 1018.81 1018.81 1018.74 1018.61 1018.45 1018.31 1018.23 1018.22 1018.31 1018.48 1018.73 1019.04 1019.36 1019.69 1020.00
1008.96 1009.34 1009.80 1010.32 1010.85 1011.36 1011.82 1012.24 1012.61 1012.95 1013.27 1013.59 1013.92 1014.25 1014.60 1014.93 1015.26 1015.56 1015.85 1016.13 1016.41 1016.70 1017.02 1017.35 1017.69 1018.02 1018.32 1018.57 1018.75 1018.85 1018.88 1018.86 1018.81 1018.76 1018.74 1018.77 1018.86 1019.01 1019.21 1019.45 1019.70 1019.96 1020.21
1007.92 1008.18 1008.55 1009.01 1009.52 1010.04 1010.55 1011.04 1011.48 1011.89 1012.29 1012.67 1013.04 1013.42 1013.80 1014.16 1014.52 1014.86 1015.18 1015.50 1015.82 1016.14 1016.49 1016.85 1017.21 1017.58 1017.92 1018.22 1018.47 1018.66 1018.79 1018.87 1018.92 1018.96 1019.01 1019.07 1019.17 1019.30 1019.45 1019.63 1019.83 1020.03 1020.24
1006.89 1006.98 1007.23 1007.59 1008.04 1008.55 1009.08 1009.61 1010.12 1010.62 1011.09 1011.55 1012.00 1012.44 1012.87 1013.29 1013.69 1014.07 1014.43 1014.78 1015.12 1015.47 1015.82 1016.18 1016.56 1016.93 1017.30 1017.64 1017.95 1018.21 1018.44 1018.62 1018.76 1018.88 1018.98 1019.08 1019.19 1019.30 1019.42 1019.56 1019.71 1019.88 1020.07
1005.92 1005.83 1005.91 1006.14 1006.51 1006.96 1007.48 1008.03 1008.60 1009.16 1009.72 1010.26 1010.79 1011.30 1011.80 1012.29 1012.74 1013.17 1013.57 1013.95 1014.31 1014.66 1015.02 1015.37 1015.74 1016.11 1016.49 1016.86 1017.21 1017.54 1017.84 1018.10 1018.33 1018.52 1018.68 1018.82 1018.93 1019.03 1019.13 1019.23 1019.36 1019.51 1019.71
1005.13 1004.84 1004.75 1004.83 1005.08 1005.45 1005.93 1006.46 1007.04 1007.64 1008.25 1008.86 1009.46 1010.05 1010.62 1011.16 1011.68 1012.16 1012.60 1013.01 1013.39 1013.75 1014.10 1014.45 1014.80 1015.17 1015.54 1015.93 1016.31 1016.69 1017.05 1017.39 1017.69 1017.95 1018.16 1018.33 1018.46 1018.56 1018.65 1018.74 1018.85 1019.00 1019.21
1004.64 1004.18 1003.92 1003.85 1003.96 1004.23 1004.61 1005.10 1005.64 1006.23 1006.85 1007.48 1008.12 1008.75 1009.37 1009.96 1010.53 1011.06 1011.55 1012.00 1012.40 1012.78 1013.13 1013.48 1013.83 1014.18 1014.56 1014.95 1015.36 1015.77 1016.18 1016.58 1016.94 1017.25 1017.51 1017.72 1017.87 1017.99 1018.08 1018.16 1018.27 1018.42 1018.64
1004.54 1003.96 1003.56 1003.35 1003.33 1003.46 1003.73 1004.11 1004.57 1005.09 1005.66 1006.26 1006.88 1007.50 1008.13 1008.75 1009.35 1009.92 1010.45 1010.93 1011.37 1011.78 1012.16 1012.52 1012.87 1013.23 1013.61 1014.02 1014.44 1014.88 1015.33 1015.76 1016.17 1016.53 1016.84 1017.08 1017.27 1017.40 1017.50 1017.59 1017.70 1017.85 1018.07
1004.87 1004.21 1003.72 1003.40 1003.25 1003.25 1003.38 1003.62 1003.95 1004.34 1004.79 1005.29 1005.83 1006.39 1006.98 1007.58 1008.17 1008.76 1009.31 1009.84 1010.33 1010.78 1011.20 1011.59 1011.98 1012.36 1012.76 1013.18 1013.62 1014.08 1014.55 1015.02 1015.45 1015.85 1016.20 1016.48 1016.70 1016.86 1016.98 1017.09 1017.20 1017.35 1017.55
Thickness
5738 5737 5736 5735 5734 5734 5733 5732 5732 5732 5731 5730 5730 5730 5729 5729 5729 5728 5728 5727 5727 5727 5726 5725 5724 5723 5722 5721 5721 5720 5720 5719 5718 5717 5716 5715 5713 5712 5711 5709 5708 5707 5706
5736 5734 5734 5733 5732 5731 5730 5729 5729 5729 5728 5727 5727 5727 5727 5726 5725 5725 5724 5724 5724 5723 5723 5722 5722 5720 5719 5719 5718 5717 5716 5716 5716 5715 5714 5713 5712 5710 5709 5708 5707 5705 5704
5734 5732 5731 5730 5729 5728 5727 5726 5726 5725 5725 5724 5724 5724 5723 5723 5722 5721 5721 5720 5720 5720 5720 5719 5718 5717 5716 5716 5715 5714 5714 5714 5713 5712 5712 5711 5710 5708 5707 5706 5705 5703 5702
5732 5730 5729 5728 5727 5725 5724 5723 5722 5721 5720 5720 5720 5720 5720 5719 5718 5718 5717 5717 5716 5716 5717 5717 5716 5715 5714 5713 5712 5712 5711 5711 5711 5711 5710 5709 5708 5707 5705 5704 5703 5702 5700
5729 5728 5727 5725 5724 5722 5721 5721 5719 5718 5716 5716 5716 5716 5716 5716 5715 5715 5714 5714 5713 5713 5713 5713 5713 5712 5711 5711 5710 5710 5709 5709 5708 5708 5707 5707 5706 5704 5703 5702 5701 5699 5698
5727 5726 5724 5723 5721 5719 5718 5717 5716 5715 5714 5713 5714 5713 5712 5713 5712 5711 5711 5711 5710 5710 5710 5709 5709 5708 5708 5708 5708 5707 5708 5707 5706 5706 5705 5704 5703 5702 5701 5699 5698 5697 5695
5725 5723 5722 5720 5719 5717 5715 5714 5713 5711 5710 5710 5708 5706 5708 5709 5708 5708 5707 5706 5706 5706 5706 5706 5706 5705 5705 5705 5705 5705 5705 5705 5704 5704 5703 5702 5700 5699 5698 5697 5695 5695 5693
5723 5721 5719 5718 5717 5715 5713 5711 5710 5708 5707 5706 5703 5700 5698 5699 5703 5705 5703 5703 5702 5702 5702 5703 5702 5702 5703 5702 5702 5702 5703 5703 5702 5701 5700 5699 5698 5696 5695 5694 5693 5692 5691
5721 5720 5718 5716 5714 5713 5711 5709 5708 5705 5702 5702 5701 5697 5692 5690 5694 5697 5698 5698 5698 5698 5698 5699 5699 5700 5700 5699 5699 5699 5699 5700 5699 5698 5698 5696 5695 5694 5692 5691 5690 5690 5689
5718 5717 5715 5713 5712 5711 5709 5708 5706 5704 5701 5698 5697 5696 5694 5692 5689 5688 5691 5693 5693 5693 5694 5695 5696 5696 5696 5696 5696 5696 5696 5696 5696 5695 5695 5694 5692 5691 5690 5688 5688 5687 5686
5715 5714 5712 5710 5709 5708 5707 5705 5704 5702 5700 5698 5695 5693 5690 5688 5687 5684 5683 5686 5687 5689 5690 5691 5692 5692 5693 5693 5693 5694 5693 5693 5692 5692 5692 5691 5690 5688 5687 5685 5684 5684 5683
5711 5710 5709 5707 5706 5705 5704 5703 5701 5699 5698 5696 5694 5691 5688 5686 5684 5681 5680 5680 5680 5683 5686 5687 5688 5688 5689 5689 5690 5690 5690 5689 5689 5689 5688 5687 5687 5686 5684 5683 5681 5681 5680
5707 5706 5705 5704 5703 5702 5701 5700 5698 5696 5694 5692 5691 5689 5687 5686 5684 5681 5678 5676 5675 5678 5680 5682 5684 5684 5685 5685 5686 5686 5686 5686 5686 5685 5685 5684 5683 5682 5681 5680 5678 5677 5676
5704 5703 5701 5700 5700 5699 5698 5696 5693 5692 5690 5688 5687 5685 5683 5682 5681 5679 5677 5673 5671 5673 5674 5677 5680 5680 5681 5681 5681 5681 5682 5682 5681 5682 5681 5681 5680 5679 5678 5677 5675 5674 5673
5701 5700 5699 5697 5697 5696 5694 5692 5689 5687 5686 5685 5683 5681 5680 5679 5678 5676 5675 5673 5669 5668 5670 5673 5674 5677 5676 5676 5677 5677 5677 5677 5678 5678 5678 5678 5677 5676 5675 5674 5672 5671 5670
5696 5695 5694 5693 5692 5691 5689 5687 5685 5684 5682 5680 5679 5677 5676 5675 5674 5673 5672 5670 5668 5667 5666 5669 5670 5672 5672 5672 5672 5672 5673 5673 5674 5674 5674 5674 5673 5672 5670 5670 5669 5668 5666
5691 5691 5689 5688 5687 5686 5684 5682 5680 5679 5677 5676 5675 5673 5673 5672 5670 5669 5668 5667 5665 5663 5662 5665 5666 5667 5667 5667 5667 5667 5667 5668 5669 5669 5669 5669 5668 5667 5666 5665 5665 5664 5663
5687 5686 5685 5683 5682 5680 5679 5677 5676 5675 5673 5672 5671 5669 5668 5667 5666 5665 5663 5663 5662 5660 5659 5660 5661 5661 5662 5663 5663 5663 5663 5663 5663 5664 5664 5663 5663 5662 5662 5661 5660 5659 5659
5681 5680 5680 5678 5677 5675 5673 5672 5671 5669 5668 5667 5666 5665 5664 5663 5661 5660 5659 5658 5657 5657 5656 5655 5656 5656 5657 5657 5657 5657 5657 5657 5658 5658 5658 5658 5658 5657 5657 5657 5656 5655 5654
5676 5675 5675 5673 5672 5670 5669 5667 5666 5664 5662 5662 5661 5660 5660 5659 5657 5656 5655 5654 5653 5652 5651 5651 5651 5651 5651 5651 5650 5650 5650 5651 5651 5652 5652 5652 5652 5652 5652 5651 5651 5650 5649
5671 5670 5670 5668 5667 5666 5665 5663 5661 5659 5657 5656 5656 5655 5655 5654 5653 5651 5651 5649 5649 5647 5646 5645 5645 5645 5644 5644 5644 5644 5644 5644 5645 5645 5646 5647 5647 5646 5646 5645 5645 5644 5643
5665 5664 5663 5663 5662 5662 5660 5658 5656 5654 5653 5652 5651 5650 5650 5649 5648 5647 5646 5645 5645 5643 5642 5640 5639 5638 5639 5638 5638 5638 5638 5637 5638 5640 5639 5640 5641 5641 5641 5640 5640 5639 5638
5658 5658 5657 5657 5656 5656 5655 5653 5651 5649 5648 5647 5646 5645 5644 5644 5642 5641 5640 5639 5639 5639 5639 5637 5636 5635 5634 5634 5633 5632 5632 5632 5633 5634 5633 5635 5635 5634 5635 5634 5634 5633 5632
5653 5652 5652 5652 5651 5650 5649 5647 5646 5644 5643 5642 5641 5639 5638 5637 5636 5635 5634 5633 5633 5633 5633 5633 5632 5632 5631 5630 5629 5628 5627 5626 5626 5627 5627 5627 5628 5628 5629 5628 5628 5627 5625
5647 5647 5647 5646 5645 5644 5642 5641 5640 5638 5637 5636 5635 5634 5632 5631 5630 5629 5628 5627 5627 5627 5627 5628 5627 5627 5626 5625 5623 5622 5621 5620 5621 5622 5621 5620 5621 5620 5621 5621 5621 5620 5619
5641 5641 5640 5639 5639 5637 5636 5635 5634 5632 5630 5630 5628 5627 5627 5625 5624 5623 5622 5622 5621 5620 5620 5621 5620 5620 5619 5619 5618 5618 5617 5615 5615 5615 5615 5614 5614 5613 5614 5615 5614 5613 5612